Time,TemperatureF,DewpointF,PressureIn,WindDirection,WindDirectionDegrees,WindSpeedMPH,WindSpeedGustMPH,Humidity,HourlyPrecipIn,Conditions,Clouds,dailyrainin,SoftwareType,DateUTC
2015-05-05 00:04:00,64.4,51.6,30.17,ESE,109,2.0,5.0,63,0.00,CLR,,0.00,WeatherDisplay:10.37,2015-05-05 05:04:00,
2015-05-05 00:09:00,64.3,51.0,30.18,ESE,109,0.0,4.0,62,0.00,CLR,,0.00,WeatherDisplay:10.37,2015-05-05 05:09:00,
2015-05-05 00:19:00,64.0,49.8,30.17,ESE,107,3.0,9.0,60,0.00,CLR,,0.00,WeatherDisplay:10.37,2015-05-05 05:19:00,
2015-05-05 00:29:00,63.9,49.7,30.18,ESE,107,3.0,5.0,60,0.00,CLR,,0.00,WeatherDisplay:10.37,2015-05-05 05:29:00,
2015-05-05 00:39:00,63.6,47.6,30.18,East,100,6.0,9.0,56,0.00,CLR,,0.00,WeatherDisplay:10.37,2015-05-05 05:39:00,
2015-05-05 00:49:00,63.5,47.0,30.18,ESE,106,5.0,8.0,55,0.00,CLR,,0.00,WeatherDisplay:10.37,2015-05-05 05:49:00,
2015-05-05 00:59:00,63.4,46.0,30.18,ESE,107,6.0,8.0,53,0.00,CLR,,0.00,WeatherDisplay:10.37,2015-05-05 05:59:00,
2015-05-05 01:04:00,63.3,44.9,30.19,ESE,106,5.0,9.0,51,0.00,CLR,,0.00,WeatherDisplay:10.37,2015-05-05 06:04:00,
2015-05-05 01:09:00,63.2,44.2,30.18,ESE,109,5.0,9.0,50,0.00,CLR,,0.00,WeatherDisplay:10.37,2015-05-05 06:09:00,
2015-05-05 01:19:00,63.1,43.6,30.18,ESE,103,3.0,7.0,49,0.00,CLR,,0.00,WeatherDisplay:10.37,2015-05-05 06:19:00,
2015-05-05 01:29:00,63.0,42.4,30.18,ESE,102,6.0,10.0,47,0.00,CLR,,0.00,WeatherDisplay:10.37,2015-05-05 06:29:00,
2015-05-05 01:39:00,62.9,41.2,30.18,ESE,105,5.0,8.0,45,0.00,CLR,,0.00,WeatherDisplay:10.37,2015-05-05 06:39:00,
2015-05-05 01:49:00,62.9,41.8,30.18,East,94,0.0,2.0,46,0.00,CLR,,0.00,WeatherDisplay:10.37,2015-05-05 06:49:00,
2015-05-05 01:59:00,62.8,41.1,30.18,East,94,0.0,2.0,45,0.00,CLR,,0.00,WeatherDisplay:10.37,2015-05-05 06:59:00,
2015-05-05 02:04:00,62.8,41.7,30.18,East,94,0.0,2.0,46,0.00,CLR,,0.00,WeatherDisplay:10.37,2015-05-05 07:04:00,
2015-05-05 02:09:00,62.7,42.2,30.18,East,94,1.0,4.0,47,0.00,CLR,,0.00,WeatherDisplay:10.37,2015-05-05 07:09:00,
2015-05-05 02:19:00,62.4,42.4,30.18,East,94,0.0,5.0,48,0.00,CLR,,0.00,WeatherDisplay:10.37,2015-05-05 07:19:00,
2015-05-05 02:29:00,62.1,43.8,30.18,East,94,1.0,4.0,51,0.00,CLR,,0.00,WeatherDisplay:10.37,2015-05-05 07:29:00,
2015-05-05 02:39:00,61.7,44.9,30.18,East,95,0.0,4.0,54,0.00,CLR,,0.00,WeatherDisplay:10.37,2015-05-05 07:39:00,
2015-05-05 02:49:00,61.1,44.8,30.18,ESE,105,0.0,8.0,55,0.00,CLR,,0.00,WeatherDisplay:10.37,2015-05-05 07:49:00,
2015-05-05 02:59:00,60.5,43.8,30.18,ESE,104,1.0,5.0,54,0.00,CLR,,0.00,WeatherDisplay:10.37,2015-05-05 07:59:00,
2015-05-05 03:04:00,60.2,44.0,30.18,East,80,1.0,6.0,55,0.00,CLR,,0.00,WeatherDisplay:10.37,2015-05-05 08:04:00,
2015-05-05 03:09:00,59.9,45.1,30.18,ENE,67,0.0,1.0,58,0.00,CLR,,0.00,WeatherDisplay:10.37,2015-05-05 08:09:00,
2015-05-05 03:19:00,59.5,45.2,30.19,ENE,67,0.0,0.0,59,0.00,CLR,,0.00,WeatherDisplay:10.37,2015-05-05 08:19:00,
2015-05-05 03:29:00,59.1,46.1,30.19,ENE,67,0.0,4.0,62,0.00,CLR,,0.00,WeatherDisplay:10.37,2015-05-05 08:29:00,
2015-05-05 03:39:00,58.5,45.5,30.20,East,98,6.0,10.0,62,0.00,CLR,,0.00,WeatherDisplay:10.37,2015-05-05 08:39:00,
2015-05-05 03:49:00,55.3,47.8,30.21,SE,139,8.0,12.0,76,0.01,RA,,0.01,WeatherDisplay:10.37,2015-05-05 08:49:00,
2015-05-05 03:59:00,53.4,47.4,30.21,SE,139,7.0,10.0,80,0.01,RA,,0.02,WeatherDisplay:10.37,2015-05-05 08:59:00,
2015-05-05 04:04:00,52.8,47.5,30.21,ESE,120,6.0,10.0,82,0.00,RA,,0.02,WeatherDisplay:10.37,2015-05-05 09:04:00,
2015-05-05 04:09:00,52.5,47.8,30.21,ESE,115,6.0,12.0,84,0.01,RA,,0.03,WeatherDisplay:10.37,2015-05-05 09:09:00,
2015-05-05 04:19:00,52.3,47.6,30.21,ESE,104,6.0,14.0,84,0.00,RA,,0.04,WeatherDisplay:10.37,2015-05-05 09:19:00,
2015-05-05 04:29:00,52.1,48.1,30.21,East,101,6.0,13.0,86,0.00,RA,,0.06,WeatherDisplay:10.37,2015-05-05 09:29:00,
2015-05-05 04:39:00,51.8,47.7,30.20,ESE,109,2.0,12.0,86,0.01,RA,,0.08,WeatherDisplay:10.37,2015-05-05 09:39:00,
2015-05-05 04:49:00,51.7,48.0,30.20,ESE,116,5.0,9.0,87,0.00,RA,,0.09,WeatherDisplay:10.37,2015-05-05 09:49:00,
2015-05-05 04:59:00,51.6,47.9,30.20,East,97,1.0,7.0,87,0.00,RA,,0.10,WeatherDisplay:10.37,2015-05-05 09:59:00,
2015-05-05 05:04:00,51.6,47.8,30.21,East,91,1.0,8.0,87,0.00,RA,,0.10,WeatherDisplay:10.37,2015-05-05 10:04:00,
2015-05-05 05:09:00,51.6,47.9,30.21,ENE,67,1.0,7.0,87,0.00,RA,,0.10,WeatherDisplay:10.37,2015-05-05 10:09:00,
2015-05-05 05:19:00,51.6,48.1,30.21,East,82,0.0,6.0,88,0.01,RA,,0.11,WeatherDisplay:10.37,2015-05-05 10:19:00,
2015-05-05 05:29:00,51.6,48.2,30.21,ESE,105,0.0,7.0,88,0.00,RA,,0.11,WeatherDisplay:10.37,2015-05-05 10:29:00,
2015-05-05 05:39:00,51.5,48.1,30.21,ESE,102,1.0,8.0,88,0.00,RA,,0.11,WeatherDisplay:10.37,2015-05-05 10:39:00,
2015-05-05 05:49:00,51.6,48.2,30.21,ESE,108,1.0,8.0,88,0.00,RA,,0.12,WeatherDisplay:10.37,2015-05-05 10:49:00,
2015-05-05 05:59:00,51.6,48.2,30.22,ESE,102,1.0,10.0,88,0.00,RA,,0.12,WeatherDisplay:10.37,2015-05-05 10:59:00,
2015-05-05 06:04:00,51.6,48.2,30.22,ESE,106,5.0,10.0,88,0.00,RA,,0.12,WeatherDisplay:10.37,2015-05-05 11:04:00,
2015-05-05 06:09:00,51.5,48.1,30.22,ESE,118,2.0,12.0,88,0.00,RA,,0.12,WeatherDisplay:10.37,2015-05-05 11:09:00,
2015-05-05 06:19:00,51.4,48.0,30.22,ESE,105,7.0,13.0,88,0.00,RA,,0.13,WeatherDisplay:10.37,2015-05-05 11:19:00,
2015-05-05 06:29:00,51.4,48.0,30.22,ESE,109,6.0,12.0,88,0.00,RA,,0.13,WeatherDisplay:10.37,2015-05-05 11:29:00,
2015-05-05 06:39:00,51.3,47.9,30.22,ESE,113,5.0,14.0,88,0.01,RA,,0.14,WeatherDisplay:10.37,2015-05-05 11:39:00,
2015-05-05 06:49:00,51.3,48.2,30.23,East,96,1.0,9.0,89,0.00,RA,,0.14,WeatherDisplay:10.37,2015-05-05 11:49:00,
2015-05-05 06:59:00,51.3,48.2,30.23,East,101,5.0,14.0,89,0.00,RA,,0.14,WeatherDisplay:10.37,2015-05-05 11:59:00,
2015-05-05 07:04:00,51.2,47.8,30.23,ESE,103,7.0,15.0,88,0.00,RA,,0.14,WeatherDisplay:10.37,2015-05-05 12:04:00,
2015-05-05 07:09:00,51.2,47.8,30.23,ESE,114,3.0,12.0,88,0.00,RA,,0.14,WeatherDisplay:10.37,2015-05-05 12:09:00,
2015-05-05 07:19:00,51.2,48.1,30.23,ESE,105,3.0,9.0,89,0.00,RA,,0.14,WeatherDisplay:10.37,2015-05-05 12:19:00,
2015-05-05 07:29:00,51.1,47.6,30.24,ESE,109,5.0,9.0,88,0.00,RA,,0.14,WeatherDisplay:10.37,2015-05-05 12:29:00,
2015-05-05 07:39:00,51.0,47.9,30.24,ESE,109,2.0,6.0,89,0.00,RA,,0.14,WeatherDisplay:10.37,2015-05-05 12:39:00,
2015-05-05 07:49:00,50.9,47.5,30.25,ESE,102,1.0,9.0,88,0.00,RA,,0.14,WeatherDisplay:10.37,2015-05-05 12:49:00,
2015-05-05 07:59:00,50.9,47.7,30.25,ESE,108,2.0,10.0,89,0.00,RA,,0.15,WeatherDisplay:10.37,2015-05-05 12:59:00,
2015-05-05 08:04:00,50.8,47.7,30.25,ESE,107,2.0,9.0,89,0.00,RA,,0.15,WeatherDisplay:10.37,2015-05-05 13:04:00,
2015-05-05 08:09:00,50.8,47.7,30.25,ESE,107,1.0,7.0,89,0.00,RA,,0.15,WeatherDisplay:10.37,2015-05-05 13:09:00,
2015-05-05 08:19:00,50.7,47.6,30.25,ESE,104,0.0,4.0,89,0.00,RA,,0.15,WeatherDisplay:10.37,2015-05-05 13:19:00,
2015-05-05 08:29:00,50.4,46.7,30.26,ESE,102,6.0,13.0,87,0.00,RA,,0.15,WeatherDisplay:10.37,2015-05-05 13:29:00,
2015-05-05 08:39:00,50.2,46.8,30.26,ESE,106,0.0,8.0,88,0.00,RA,,0.15,WeatherDisplay:10.37,2015-05-05 13:39:00,
2015-05-05 08:49:00,50.3,46.9,30.26,East,95,0.0,4.0,88,0.00,RA,,0.15,WeatherDisplay:10.37,2015-05-05 13:49:00,
2015-05-05 08:59:00,50.3,46.9,30.27,ENE,60,0.0,6.0,88,0.00,RA,,0.15,WeatherDisplay:10.37,2015-05-05 13:59:00,
2015-05-05 09:04:00,50.3,46.6,30.27,ENE,70,0.0,4.0,87,0.00,RA,,0.15,WeatherDisplay:10.37,2015-05-05 14:04:00,
2015-05-05 09:09:00,50.3,46.6,30.27,ENE,72,1.0,5.0,87,0.00,RA,,0.15,WeatherDisplay:10.37,2015-05-05 14:09:00,
2015-05-05 09:19:00,50.3,46.9,30.27,ENE,77,0.0,4.0,88,0.01,RA,,0.16,WeatherDisplay:10.37,2015-05-05 14:19:00,
2015-05-05 09:29:00,50.3,46.3,30.27,East,99,6.0,10.0,86,0.00,RA,,0.16,WeatherDisplay:10.37,2015-05-05 14:29:00,
2015-05-05 09:39:00,50.4,46.7,30.27,ESE,102,3.0,7.0,87,0.00,RA,,0.16,WeatherDisplay:10.37,2015-05-05 14:39:00,
2015-05-05 09:49:00,50.4,46.7,30.27,ESE,107,1.0,12.0,87,0.00,RA,,0.16,WeatherDisplay:10.37,2015-05-05 14:49:00,
2015-05-05 09:59:00,50.6,46.9,30.27,East,94,3.0,6.0,87,0.00,RA,,0.16,WeatherDisplay:10.37,2015-05-05 14:59:00,
2015-05-05 10:04:00,50.6,46.8,30.27,East,97,1.0,6.0,87,0.01,RA,,0.17,WeatherDisplay:10.37,2015-05-05 15:04:00,
2015-05-05 10:09:00,50.6,47.2,30.27,ESE,104,5.0,7.0,88,0.00,RA,,0.17,WeatherDisplay:10.37,2015-05-05 15:09:00,
2015-05-05 10:19:00,50.7,47.5,30.28,ESE,118,0.0,4.0,89,0.00,RA,,0.17,WeatherDisplay:10.37,2015-05-05 15:19:00,
2015-05-05 10:29:00,50.9,47.5,30.28,ESE,108,2.0,9.0,88,0.01,RA,,0.18,WeatherDisplay:10.37,2015-05-05 15:29:00,
2015-05-05 10:39:00,50.8,47.4,30.28,SE,142,1.0,4.0,88,0.00,RA,,0.18,WeatherDisplay:10.37,2015-05-05 15:39:00,
2015-05-05 10:49:00,50.9,47.8,30.28,ENE,67,0.0,5.0,89,0.00,RA,,0.19,WeatherDisplay:10.37,2015-05-05 15:49:00,
2015-05-05 10:59:00,51.0,47.9,30.29,NE,53,0.0,2.0,89,0.00,RA,,0.19,WeatherDisplay:10.37,2015-05-05 15:59:00,
2015-05-05 11:04:00,51.1,48.3,30.29,ENE,61,3.0,6.0,90,0.00,RA,,0.19,WeatherDisplay:10.37,2015-05-05 16:04:00,
2015-05-05 11:09:00,51.2,48.4,30.28,ENE,69,0.0,1.0,90,0.00,RA,,0.19,WeatherDisplay:10.37,2015-05-05 16:09:00,
2015-05-05 11:19:00,51.5,48.7,30.29,ENE,71,0.0,4.0,90,0.00,RA,,0.20,WeatherDisplay:10.37,2015-05-05 16:19:00,
2015-05-05 11:29:00,51.8,49.2,30.29,ENE,72,1.0,2.0,91,0.00,RA,,0.20,WeatherDisplay:10.37,2015-05-05 16:29:00,
2015-05-05 11:39:00,52.0,49.4,30.28,ENE,72,0.0,0.0,91,0.01,RA,,0.21,WeatherDisplay:10.37,2015-05-05 16:39:00,
2015-05-05 11:49:00,52.3,49.8,30.28,ENE,72,0.0,3.0,91,0.01,RA,,0.22,WeatherDisplay:10.37,2015-05-05 16:49:00,
2015-05-05 11:59:00,52.4,49.9,30.28,NE,53,0.0,6.0,91,0.00,RA,,0.22,WeatherDisplay:10.37,2015-05-05 16:59:00,
2015-05-05 12:04:00,52.6,50.0,30.28,East,83,1.0,5.0,91,0.01,RA,,0.23,WeatherDisplay:10.37,2015-05-05 17:04:00,
2015-05-05 12:09:00,52.5,49.9,30.28,East,85,1.0,5.0,91,0.00,RA,,0.23,WeatherDisplay:10.37,2015-05-05 17:09:00,
2015-05-05 12:19:00,52.9,50.6,30.28,East,87,0.0,7.0,92,0.01,RA,,0.24,WeatherDisplay:10.37,2015-05-05 17:19:00,
2015-05-05 12:29:00,53.1,50.8,30.27,ESE,106,0.0,5.0,92,0.00,RA,,0.24,WeatherDisplay:10.37,2015-05-05 17:29:00,
2015-05-05 12:39:00,53.5,51.2,30.27,East,96,0.0,5.0,92,0.00,RA,,0.25,WeatherDisplay:10.37,2015-05-05 17:39:00,
2015-05-05 12:49:00,53.5,50.9,30.26,East,99,2.0,13.0,91,0.00,RA,,0.25,WeatherDisplay:10.37,2015-05-05 17:49:00,
2015-05-05 12:59:00,53.6,51.0,30.26,ESE,104,5.0,12.0,91,0.00,RA,,0.25,WeatherDisplay:10.37,2015-05-05 17:59:00,
2015-05-05 13:04:00,53.8,51.2,30.26,ESE,109,1.0,8.0,91,0.00,RA,,0.25,WeatherDisplay:10.37,2015-05-05 18:04:00,
2015-05-05 13:09:00,53.8,51.2,30.26,ESE,112,6.0,13.0,91,0.00,RA,,0.25,WeatherDisplay:10.37,2015-05-05 18:09:00,
2015-05-05 13:19:00,54.1,51.6,30.26,East,101,2.0,13.0,91,0.00,RA,,0.25,WeatherDisplay:10.37,2015-05-05 18:19:00,
2015-05-05 13:29:00,54.4,51.8,30.26,ESE,105,2.0,12.0,91,0.00,RA,,0.25,WeatherDisplay:10.37,2015-05-05 18:29:00,
2015-05-05 13:39:00,54.5,51.6,30.26,East,101,6.0,9.0,90,0.00,RA,,0.25,WeatherDisplay:10.37,2015-05-05 18:39:00,
2015-05-05 13:49:00,54.5,51.6,30.26,East,100,2.0,8.0,90,0.00,RA,,0.25,WeatherDisplay:10.37,2015-05-05 18:49:00,
2015-05-05 13:59:00,54.6,51.7,30.26,East,82,6.0,12.0,90,0.00,RA,,0.25,WeatherDisplay:10.37,2015-05-05 18:59:00,
2015-05-05 14:04:00,54.6,51.4,30.25,East,101,6.0,14.0,89,0.00,RA,,0.25,WeatherDisplay:10.37,2015-05-05 19:04:00,
2015-05-05 14:09:00,54.7,51.8,30.26,ESE,108,5.0,8.0,90,0.00,RA,,0.25,WeatherDisplay:10.37,2015-05-05 19:09:00,
2015-05-05 14:19:00,55.0,51.8,30.26,East,100,2.0,8.0,89,0.00,RA,,0.25,WeatherDisplay:10.37,2015-05-05 19:19:00,
2015-05-05 14:29:00,55.1,51.9,30.26,East,83,1.0,4.0,89,0.00,RA,,0.25,WeatherDisplay:10.37,2015-05-05 19:29:00,
2015-05-05 14:39:00,55.3,52.1,30.25,East,92,1.0,6.0,89,0.00,RA,,0.25,WeatherDisplay:10.37,2015-05-05 19:39:00,
2015-05-05 14:49:00,55.3,52.1,30.25,ENE,67,0.0,6.0,89,0.00,RA,,0.25,WeatherDisplay:10.37,2015-05-05 19:49:00,
2015-05-05 14:59:00,55.2,52.0,30.25,ESE,106,1.0,12.0,89,0.00,RA,,0.25,WeatherDisplay:10.37,2015-05-05 19:59:00,
2015-05-05 15:04:00,55.3,52.1,30.25,East,96,1.0,7.0,89,0.00,RA,,0.25,WeatherDisplay:10.37,2015-05-05 20:04:00,
2015-05-05 15:09:00,55.3,51.8,30.25,East,97,2.0,9.0,88,0.00,RA,,0.25,WeatherDisplay:10.37,2015-05-05 20:09:00,
2015-05-05 15:19:00,55.3,51.8,30.25,ESE,104,2.0,15.0,88,0.00,RA,,0.25,WeatherDisplay:10.37,2015-05-05 20:19:00,
2015-05-05 15:29:00,55.4,51.9,30.25,ESE,107,1.0,9.0,88,0.00,RA,,0.25,WeatherDisplay:10.37,2015-05-05 20:29:00,
2015-05-05 15:39:00,55.5,52.0,30.24,ESE,107,3.0,10.0,88,0.00,RA,,0.25,WeatherDisplay:10.37,2015-05-05 20:39:00,
2015-05-05 15:49:00,55.6,52.1,30.24,East,101,1.0,9.0,88,0.00,RA,,0.25,WeatherDisplay:10.37,2015-05-05 20:49:00,
2015-05-05 15:59:00,55.7,52.5,30.24,East,97,2.0,7.0,89,0.00,RA,,0.25,WeatherDisplay:10.37,2015-05-05 20:59:00,
2015-05-05 16:04:00,55.7,52.5,30.24,East,94,0.0,5.0,89,0.00,RA,,0.25,WeatherDisplay:10.37,2015-05-05 21:04:00,
2015-05-05 16:09:00,55.7,52.5,30.24,East,92,1.0,5.0,89,0.00,RA,,0.25,WeatherDisplay:10.37,2015-05-05 21:09:00,
2015-05-05 16:19:00,55.5,52.6,30.23,ESE,106,1.0,4.0,90,0.00,RA,,0.25,WeatherDisplay:10.37,2015-05-05 21:19:00,
2015-05-05 16:29:00,55.5,52.6,30.22,ESE,109,1.0,5.0,90,0.00,RA,,0.25,WeatherDisplay:10.37,2015-05-05 21:29:00,
2015-05-05 16:39:00,55.3,52.4,30.22,ESE,106,1.0,5.0,90,0.00,RA,,0.25,WeatherDisplay:10.37,2015-05-05 21:39:00,
2015-05-05 16:49:00,55.4,52.8,30.22,ESE,109,0.0,6.0,91,0.00,RA,,0.25,WeatherDisplay:10.37,2015-05-05 21:49:00,
2015-05-05 16:59:00,55.4,52.8,30.22,East,89,0.0,5.0,91,0.00,RA,,0.25,WeatherDisplay:10.37,2015-05-05 21:59:00,
2015-05-05 17:04:00,55.4,52.8,30.22,ESE,116,0.0,7.0,91,0.00,RA,,0.25,WeatherDisplay:10.37,2015-05-05 22:04:00,
2015-05-05 17:09:00,55.5,52.9,30.22,SE,137,1.0,4.0,91,0.00,RA,,0.25,WeatherDisplay:10.37,2015-05-05 22:09:00,
2015-05-05 17:19:00,55.6,53.1,30.22,ESE,120,5.0,8.0,91,0.00,RA,,0.25,WeatherDisplay:10.37,2015-05-05 22:19:00,
2015-05-05 17:29:00,55.7,52.8,30.22,ESE,115,7.0,10.0,90,0.00,RA,,0.25,WeatherDisplay:10.37,2015-05-05 22:29:00,
2015-05-05 17:39:00,55.8,52.9,30.22,ESE,104,0.0,4.0,90,0.00,RA,,0.25,WeatherDisplay:10.37,2015-05-05 22:39:00,
2015-05-05 17:49:00,55.9,52.7,30.22,East,92,1.0,5.0,89,0.00,RA,,0.25,WeatherDisplay:10.37,2015-05-05 22:49:00,
2015-05-05 17:59:00,56.0,52.8,30.21,East,95,3.0,7.0,89,0.00,RA,,0.25,WeatherDisplay:10.37,2015-05-05 22:59:00,
2015-05-05 18:04:00,56.0,52.8,30.21,ESE,113,2.0,7.0,89,0.00,RA,,0.25,WeatherDisplay:10.37,2015-05-05 23:04:00,
2015-05-05 18:09:00,56.0,52.8,30.21,ESE,115,5.0,8.0,89,0.00,RA,,0.25,WeatherDisplay:10.37,2015-05-05 23:09:00,
2015-05-05 18:19:00,56.0,52.8,30.21,ESE,104,2.0,6.0,89,0.00,RA,,0.25,WeatherDisplay:10.37,2015-05-05 23:19:00,
2015-05-05 18:29:00,56.1,52.6,30.21,ESE,106,1.0,6.0,88,0.00,RA,,0.25,WeatherDisplay:10.37,2015-05-05 23:29:00,
2015-05-05 18:39:00,56.2,52.7,30.21,ESE,122,2.0,7.0,88,0.00,RA,,0.25,WeatherDisplay:10.37,2015-05-05 23:39:00,
2015-05-05 18:49:00,56.2,52.4,30.21,ESE,110,0.0,7.0,87,0.00,RA,,0.25,WeatherDisplay:10.37,2015-05-05 23:49:00,
2015-05-05 18:59:00,56.2,52.4,30.21,East,100,3.0,8.0,87,0.00,RA,,0.25,WeatherDisplay:10.37,2015-05-05 23:59:00,
2015-05-05 19:04:00,56.2,52.4,30.21,East,98,1.0,6.0,87,0.00,RA,,0.25,WeatherDisplay:10.37,2015-05-06 00:04:00,
2015-05-05 19:09:00,56.2,52.4,30.20,East,97,7.0,12.0,87,0.00,RA,,0.25,WeatherDisplay:10.37,2015-05-06 00:09:00,
2015-05-05 19:19:00,56.3,52.1,30.20,SSE,158,1.0,6.0,86,0.00,RA,,0.25,WeatherDisplay:10.37,2015-05-06 00:19:00,
2015-05-05 19:29:00,56.2,52.1,30.20,ESE,118,5.0,9.0,86,0.00,RA,,0.25,WeatherDisplay:10.37,2015-05-06 00:29:00,
2015-05-05 19:39:00,56.2,52.0,30.20,ESE,113,2.0,9.0,86,0.00,RA,,0.25,WeatherDisplay:10.37,2015-05-06 00:39:00,
2015-05-05 19:49:00,56.2,52.1,30.21,ESE,102,0.0,12.0,86,0.00,RA,,0.25,WeatherDisplay:10.37,2015-05-06 00:49:00,
2015-05-05 19:59:00,56.3,52.5,30.21,East,101,0.0,4.0,87,0.00,RA,,0.25,WeatherDisplay:10.37,2015-05-06 00:59:00,
2015-05-05 20:04:00,56.2,52.1,30.22,ESE,112,5.0,6.0,86,0.00,RA,,0.25,WeatherDisplay:10.37,2015-05-06 01:04:00,
2015-05-05 20:09:00,56.2,52.4,30.21,ESE,119,2.0,7.0,87,0.00,RA,,0.25,WeatherDisplay:10.37,2015-05-06 01:09:00,
2015-05-05 20:19:00,55.8,52.3,30.21,ESE,114,2.0,6.0,88,0.00,RA,,0.26,WeatherDisplay:10.37,2015-05-06 01:19:00,
2015-05-05 20:29:00,55.5,52.3,30.21,ESE,105,6.0,9.0,89,0.00,RA,,0.26,WeatherDisplay:10.37,2015-05-06 01:29:00,
2015-05-05 20:39:00,55.4,52.5,30.22,SE,137,2.0,5.0,90,0.00,RA,,0.26,WeatherDisplay:10.37,2015-05-06 01:39:00,
2015-05-05 20:49:00,55.2,52.3,30.22,SE,126,6.0,8.0,90,0.00,RA,,0.27,WeatherDisplay:10.37,2015-05-06 01:49:00,
2015-05-05 20:59:00,55.1,52.2,30.21,ESE,110,6.0,9.0,90,0.00,RA,,0.27,WeatherDisplay:10.37,2015-05-06 01:59:00,
2015-05-05 21:04:00,55.0,52.4,30.21,ESE,107,3.0,7.0,91,0.01,RA,,0.28,WeatherDisplay:10.37,2015-05-06 02:04:00,
2015-05-05 21:09:00,55.0,52.4,30.22,ESE,118,0.0,6.0,91,0.00,RA,,0.28,WeatherDisplay:10.37,2015-05-06 02:09:00,
2015-05-05 21:19:00,54.9,52.3,30.22,ESE,109,5.0,9.0,91,0.00,RA,,0.28,WeatherDisplay:10.37,2015-05-06 02:19:00,
2015-05-05 21:29:00,54.8,52.5,30.22,East,101,2.0,6.0,92,0.00,RA,,0.29,WeatherDisplay:10.37,2015-05-06 02:29:00,
2015-05-05 21:39:00,54.8,52.5,30.22,ESE,102,0.0,2.0,92,0.00,RA,,0.29,WeatherDisplay:10.37,2015-05-06 02:39:00,
2015-05-05 21:49:00,54.7,52.4,30.23,ESE,102,0.0,0.0,92,0.00,RA,,0.29,WeatherDisplay:10.37,2015-05-06 02:49:00,
2015-05-05 21:59:00,54.6,52.3,30.23,ESE,102,0.0,3.0,92,0.00,RA,,0.29,WeatherDisplay:10.37,2015-05-06 02:59:00,
2015-05-05 22:04:00,54.6,52.3,30.23,ESE,102,0.0,2.0,92,0.00,RA,,0.29,WeatherDisplay:10.37,2015-05-06 03:04:00,
2015-05-05 22:09:00,54.6,52.3,30.23,ESE,102,2.0,6.0,92,0.00,RA,,0.29,WeatherDisplay:10.37,2015-05-06 03:09:00,
2015-05-05 22:19:00,54.5,52.2,30.23,ESE,103,0.0,4.0,92,0.00,RA,,0.29,WeatherDisplay:10.37,2015-05-06 03:19:00,
2015-05-05 22:29:00,54.5,52.2,30.23,ESE,103,1.0,4.0,92,0.00,RA,,0.29,WeatherDisplay:10.37,2015-05-06 03:29:00,
2015-05-05 22:39:00,54.5,52.2,30.23,ESE,102,2.0,7.0,92,0.00,RA,,0.29,WeatherDisplay:10.37,2015-05-06 03:39:00,
2015-05-05 22:49:00,54.4,52.2,30.23,ESE,102,1.0,8.0,92,0.00,RA,,0.29,WeatherDisplay:10.37,2015-05-06 03:49:00,
2015-05-05 22:59:00,54.5,52.2,30.23,ESE,102,0.0,6.0,92,0.00,RA,,0.29,WeatherDisplay:10.37,2015-05-06 03:59:00,
2015-05-05 23:04:00,54.4,52.2,30.23,ESE,103,2.0,5.0,92,0.00,RA,,0.29,WeatherDisplay:10.37,2015-05-06 04:04:00,
2015-05-05 23:09:00,54.4,52.1,30.23,ESE,123,2.0,6.0,92,0.00,RA,,0.29,WeatherDisplay:10.37,2015-05-06 04:09:00,
2015-05-05 23:19:00,54.3,52.0,30.23,ESE,120,2.0,6.0,92,0.00,RA,,0.29,WeatherDisplay:10.37,2015-05-06 04:19:00,